CAPE
1357 990 1106 1019 122 0 0 0 0 0 7 24 31 36 156 218 330 626 718 716 695 739 804 684 895 981 938 1028 1118 1204 1304 1150 1229 1268 1389 1340 1402 1425 1439 1800 1932 1967 2106 2228 2327 2352 2418 2352 2588 2689 2754 2711 2569 2569 2595 2699 2730 2682 2691 2756 2710 2679 2710
1205 1029 1096 1295 378 391 373 190 48 0 0 13 27 50 128 271 209 485 689 652 650 543 787 525 974 994 919 934 1095 1112 1303 1438 1356 1531 1451 1525 1649 1516 1501 1757 1895 1926 2004 2053 2084 2174 2294 2337 2404 2552 2664 2709 2647 2581 2588 2655 2750 2750 2525 2713 2845 2627 2612
1068 1061 1107 1395 538 668 1103 753 556 31 1 5 29 57 127 245 265 334 601 691 620 556 809 546 956 1004 978 909 1011 1164 1117 1350 1454 1371 1410 1533 1601 1614 1612 1757 1856 1880 1962 2033 2024 2039 2158 2300 2359 2354 2356 2440 2523 2590 2556 2554 2575 2613 2537 2670 2965 2710 2486
974 980 897 1273 984 1375 1351 1012 911 844 10 12 22 62 123 298 310 266 457 711 676 703 893 782 885 1065 1061 993 978 1103 1138 1144 1366 1472 1424 1466 1560 1756 1748 1834 1861 1877 2032 2140 2111 2040 2053 2197 2333 2342 2681 2111 2224 2526 2615 2643 2649 2645 2714 2792 3042 3143 2894
1064 1077 964 1121 1016 1148 1070 1278 933 659 546 36 2 78 106 306 457 346 385 659 696 764 973 878 847 1124 1154 1143 1082 1102 1137 1117 1272 1487 1531 1476 1542 1798 1825 1869 1920 1918 1978 2171 2241 2274 2105 2112 2219 2289 2234 2219 2200 2466 2763 2843 2858 2870 3064 3121 3038 3194 3188
927 1001 1115 1299 1191 1132 1295 1319 891 850 779 692 262 32 147 377 513 512 514 769 715 730 1040 1011 854 1220 1264 1297 1289 1282 1306 1248 1239 1486 1615 1577 1539 1705 1917 1886 2005 1990 1997 2099 2240 2364 2334 2148 2167 2240 2267 2240 2274 2433 2717 2901 3002 3027 3196 3327 3253 3028 2918
611 808 984 1180 1174 1272 1704 1269 1130 1235 1330 1204 1063 1002 343 522 607 604 598 854 885 708 978 1271 978 1125 1333 1412 1435 1485 1492 1488 1419 1496 1674 1702 1626 1579 1803 2011 2064 2174 2158 2170 2221 2293 2376 2370 2251 2223 2254 2263 2282 2354 2605 2793 2878 2965 3008 3086 3152 3156 3065
585 672 742 957 1174 1522 1507 1220 1357 1492 1340 980 892 921 570 640 729 792 725 956 1115 865 973 1388 1232 1089 1364 1510 1545 1585 1606 1620 1637 1575 1678 1804 1772 1684 1593 1740 1983 2065 2144 2263 2329 2363 2409 2434 2459 2368 2247 2231 2229 2295 2527 2678 2746 2767 2807 2856 2917 3026 3084
608 623 571 745 968 1383 1445 1449 1600 1720 1546 1288 1187 1159 1197 1187 1177 1176 990 1099 1332 1128 1152 1480 1553 1354 1367 1566 1652 1675 1676 1687 1708 1700 1692 1796 1862 1832 1756 1639 1608 1681 1750 1893 2075 2228 2388 2485 2522 2555 2530 2380 2240 2246 2427 2658 2724 2746 2754 2794 2881 2936 3030
576 593 603 668 920 1017 1119 1254 1166 1133 1209 1318 1274 1229 1333 1434 1489 1472 1351 1384 1531 1418 1340 1509 1681 1799 1754 1700 1716 1712 1737 1771 1763 1774 1729 1744 1836 1890 1839 1788 1731 1678 1660 1683 1692 1720 1888 2236 2463 2515 2532 2539 2501 2392 2287 2512 2719 2802 2834 2857 2880 2948 3000
341 503 665 721 950 1058 1098 1078 1098 1101 1055 1023 1025 1042 1276 1456 1470 1465 1420 1381 1498 1502 1416 1487 1659 1845 1948 1938 1922 1816 1733 1720 1793 1809 1813 1742 1736 1793 1850 1828 1782 1735 1694 1660 1611 1505 1486 1611 2031 2230 2329 2438 2474 2412 2306 2291 2477 2673 2792 2865 2901 2904 2919
336 378 664 850 924 916 1118 1042 1034 1110 1105 1056 982 918 1052 1418 1584 1588 1547 1479 1477 1509 1481 1512 1626 1819 1998 2047 2054 2096 2039 1959 1866 1818 1801 1763 1724 1720 1731 1739 1739 1728 1694 1654 1635 1538 1336 1340 1561 1962 2157 2277 2298 2318 2303 2261 2246 2381 2545 2679 2793 2853 2886
237 356 445 708 860 874 1000 998 996 969 1042 1132 1108 994 915 959 1221 1596 1732 1711 1570 1556 1642 1553 1597 1732 1863 1951 1979 1968 1951 1839 2031 2102 2069 1903 1697 1738 1758 1761 1732 1684 1638 1604 1615 1579 1434 1221 1220 1509 1845 2029 2132 2173 2193 2214 2227 2279 2405 2530 2590 2665 2762
0 175 300 613 874 1012 987 999 904 780 690 805 1056 1084 1063 1021 1039 899 1172 1297 1608 1704 1658 1677 1716 1724 1742 1725 1796 1729 1764 1878 1953 2015 1971 2046 1978 1752 1671 1686 1708 1702 1649 1598 1575 1534 1514 1337 1097 1196 1444 1702 1873 2002 2058 2088 2108 2145 2228 2273 2331 2398 2482
122 76 188 385 687 898 915 973 855 789 797 847 967 1067 1159 1067 998 954 804 783 810 974 1280 1191 1367 1543 1818 1746 1572 1478 1364 1374 1713 1980 1876 1781 1918 1903 1790 1649 1570 1537 1521 1484 1452 1423 1384 1329 1144 969 1128 1354 1588 1762 1871 1956 2003 1996 1958 1902 1849 1879 2008
128 157 184 126 421 581 637 664 749 608 826 820 1058 1060 1043 1082 994 912 857 810 845 866 808 770 735 822 949 974 1040 1128 1160 1169 1337 1589 1650 1732 1883 1911 1791 1748 1634 1448 1333 1258 1190 1208 1240 1210 1119 993 853 998 1237 1446 1641 1760 1799 1815 1813 1794 1776 1686 1632
138 138 141 171 66 398 423 286 294 435 428 644 768 848 928 1080 1042 978 970 983 970 1021 1092 1004 926 843 917 930 899 1100 1235 1212 1347 1483 1505 1569 1714 1848 1776 1572 1575 1502 1372 1224 1079 981 986 1049 1055 937 804 807 860 1045 1188 1338 1459 1556 1633 1685 1716 1677 1613
202 132 114 164 182 39 144 110 221 340 334 228 288 272 230 588 868 844 926 983 1022 1081 1086 1044 990 971 1038 1002 1183 1167 1218 1204 1127 1245 1327 1308 1272 1287 1369 1339 1237 1389 1476 1392 1170 953 804 803 840 815 738 719 772 775 912 1042 1134 1204 1288 1400 1497 1569 1573
259 254 201 177 202 283 404 406 363 247 310 289 341 382 317 184 227 318 694 742 733 859 883 904 968 980 1086 1118 1114 1352 1240 1241 1252 1201 1264 1274 1280 1396 1624 1461 1479 1136 1093 1332 1308 1039 805 724 688 810 818 788 756 751 741 849 1018 1108 1151 1176 1228 1301 1368
179 142 114 174 153 177 244 294 339 304 259 243 264 305 300 305 264 0 312 479 675 832 866 910 962 961 649 870 938 982 1036 1080 1099 1130 1128 1098 1142 1240 1502 1655 1636 1560 1461 1324 1281 1213 1160 1113 946 907 869 823 814 817 780 735 705 859 1011 1090 1114 1126 1154
79 74 100 110 106 86 123 153 190 234 246 250 230 252 272 314 282 314 358 401 462 536 625 634 700 679 732 645 694 839 839 897 952 916 1052 1062 965 1079 1141 1202 1281 1279 1268 1251 1294 1398 1435 1374 1299 1277 1236 1071 887 747 739 724 707 679 653 812 962 1044 1074
0 74 113 64 79 14 119 142 144 134 170 193 186 205 215 204 180 202 292 351 370 396 377 391 407 430 249 332 424 508 709 842 806 814 841 930 866 954 883 1011 1073 1210 1295 1235 1234 1267 1336 1415 1384 1346 1369 1381 1352 1289 1132 865 751 779 668 555 592 835 899
0 0 0 0 0 0 0 0 0 0 0 78 88 79 2 39 30 66 0 0 102 130 210 253 304 354 389 396 344 361 479 541 629 655 624 607 660 754 824 926 976 1077 1124 1201 1176 1141 1211 1257 1396 1397 1392 1378 1309 1258 1260 1248 1217 1098 931 910 728 516 537
0 0 0 0 0 0 0 0 0 0 0 0 0 0 0 0 0 0 0 0 0 0 0 0 141 197 246 267 250 249 255 271 309 330 284 318 393 404 515 637 855 929 955 1013 1046 1015 993 1010 1079 1210 1306 1292 1268 1276 1246 1226 1220 1186 1146 1070 949 925 824
0 0 0 0 0 0 0 0 0 0 0 0 0 0 0 0 0 0 0 0 0 0 0 0 0 0 20 135 174 200 236 241 248 291 305 354 432 374 334 402 605 759 772 794 811 809 841 926 981 1036 1166 1257 1275 1411 1431 1393 1360 1254 1170 1126 1042 992 959
0 0 0 0 0 0 0 0 0 0 0 0 0 0 0 0 0 0 0 0 0 0 0 0 0 0 0 0 0 0 5 100 170 196 200 248 316 331 404 425 458 525 567 572 610 639 602 745 798 833 927 998 1083 1153 1181 1220 1309 1317 1290 1275 1219 1208 1195
0 0 0 0 0 0 0 0 0 0 0 0 0 0 0 0 0 0 0 0 0 0 0 0 0 0 0 0 0 0 0 0 0 0 0 0 56 117 168 277 371 406 415 446 472 463 468 483 539 624 714 778 881 939 1014 1036 1034 1160 1220 1242 1267 1310 1342
0 0 0 0 0 0 0 0 0 0 0 0 0 0 0 0 0 0 0 0 0 0 0 0 0 0 0 0 0 0 0 0 0 0 0 0 0 0 0 0 112 194 280 345 366 364 396 396 474 530 593 634 735 808 941 954 899 859 960 1024 1136 1241 1269
0 0 0 0 0 0 0 0 0 0 0 0 0 0 0 0 0 0 0 0 0 0 0 0 0 0 0 0 0 0 0 0 0 0 0 0 0 0 0 0 0 0 7 26 130 167 214 292 372 423 478 513 559 614 699 758 806 767 704 706 864 1098 1279
0 0 0 0 0 0 0 0 0 0 0 0 0 0 0 0 0 0 0 0 0 0 0 0 0 0 0 0 0 0 0 0 0 0 0 0 0 0 0 0 0 0 0 0 0 0 0 85 122 227 320 374 400 446 439 500 547 585 576 584 712 855 1023
0 0 0 0 0 0 0 0 0 0 0 0 0 0 0 0 0 0 0 0 0 0 0 0 0 0 0 0 0 0 0 0 0 0 0 0 0 0 0 0 0 0 0 0 0 0 0 0 0 28 130 177 226 284 337 382 412 459 497 520 544 683 824
0 0 0 0 0 0 0 0 0 0 0 0 0 0 0 0 0 0 0 0 0 0 0 0 0 0 0 0 0 0 0 0 0 0 0 0 0 0 0 0 0 0 0 0 0 0 0 0 0 0 0 0 98 112 164 210 236 272 320 348 382 459 600
0 0 0 0 0 0 0 0 0 0 0 0 0 0 0 0 0 0 0 0 0 0 0 0 0 0 0 0 0 0 0 0 0 0 0 0 0 0 0 0 0 0 0 0 0 0 0 0 0 0 0 0 0 0 0 17 92 140 160 171 215 262 300
0 0 0 0 0 0 0 0 0 0 0 0 0 0 0 0 0 0 0 0 0 0 0 0 0 0 0 0 0 0 0 0 0 0 0 0 0 0 0 0 0 0 0 0 0 0 0 0 0 0 0 0 0 0 0 0 0 0 0 0 1 0 0
0 0 0 0 0 0 0 0 0 0 0 0 0 0 0 0 0 0 0 0 0 0 0 0 0 0 0 0 0 0 0 0 0 0 0 0 0 0 0 0 0 0 0 0 0 0 0 0 0 0 0 0 0 0 0 0 0 0 0 0 0 0 0
0 0 0 0 0 0 0 0 0 0 0 0 0 0 0 0 0 0 0 0 0 0 0 0 0 0 0 0 0 0 0 0 0 0 0 0 0 0 0 0 0 0 0 0 0 0 0 0 0 0 0 0 0 0 0 0 0 0 0 0 0 0 0
0 0 0 0 0 0 0 0 0 0 0 0 0 0 0 0 0 0 0 0 0 0 0 0 0 0 0 1 0 1 10 0 0 0 0 0 0 0 0 0 0 0 0 0 0 0 0 0 0 0 0 0 0 0 0 0 0 0 0 0 0 0 0
0 0 0 0 0 0 0 0 0 0 0 0 0 0 0 0 0 0 0 0 0 0 0 0 0 0 0 0 0 6 1 0 0 0 0 0 0 0 0 0 0 0 0 0 0 0 0 0 0 0 0 0 0 0 0 0 0 0 0 0 0 0 0
Wind_Speed
30 27 24 22 21 nan nan nan nan nan nan nan nan nan 10 10 10 10 10 9 8 8 9 8 7 10 10 11 12 13 11 11 12 11 11 11 11 10 11 12 11 12 12 11 11 10 10 10 9 9 9 9 8 7 7 7 6 6 6 6 5 5 5
30 28 24 22 22 21 21 19 nan nan nan nan nan nan 10 10 11 10 9 8 7 6 7 7 7 8 9 10 13 14 13 13 13 14 14 14 13 12 11 11 10 11 11 11 11 11 11 10 8 8 8 8 8 7 6 6 6 6 6 5 5 6 5
29 29 26 24 24 24 24 25 22 nan nan nan nan nan 10 10 10 8 9 9 8 8 8 6 6 6 9 10 12 14 14 14 14 14 14 13 12 11 11 11 11 11 11 11 11 11 11 10 10 8 8 8 8 7 6 6 6 5 5 4 4 5 5
28 29 27 26 28 27 25 25 25 25 nan nan nan nan 11 11 11 10 9 8 7 8 7 7 7 7 9 10 11 13 15 15 15 14 14 14 13 13 12 12 11 12 11 11 11 11 11 11 10 10 9 8 8 8 7 6 6 5 4 4 4 4 3
31 32 31 31 30 27 26 26 27 27 22 nan nan nan 12 13 12 12 11 9 8 6 5 6 7 8 10 10 11 13 13 15 15 15 14 15 15 14 12 11 10 9 9 11 12 12 12 12 11 11 11 10 10 9 8 8 7 7 6 6 5 5 4
27 31 31 30 28 27 27 27 26 26 23 19 15 nan 14 15 16 13 11 11 9 10 11 10 8 8 8 9 10 12 14 14 14 14 14 14 14 14 13 12 11 10 10 9 11 11 12 12 12 12 11 11 10 10 10 9 9 9 9 9 7 7 6
26 32 32 30 29 29 29 27 28 28 27 25 24 20 17 17 16 16 16 13 13 11 11 11 10 11 10 11 10 11 10 11 13 14 15 14 14 12 13 13 13 11 10 11 10 11 11 12 12 12 11 11 10 9 9 9 9 10 10 9 8 9 9
23 29 30 31 31 32 30 28 28 30 30 29 27 24 19 17 19 19 14 12 12 14 13 12 12 12 13 13 11 10 10 11 13 14 15 15 14 13 13 13 14 13 13 11 9 11 10 10 11 12 11 10 9 9 8 8 8 9 10 9 9 9 10
24 29 31 33 35 33 31 31 33 34 34 33 32 30 26 21 17 15 15 16 17 16 17 17 16 16 16 15 15 13 14 14 14 14 14 13 13 12 12 13 13 14 13 11 10 11 10 10 10 10 9 9 9 8 8 8 8 8 8 8 8 8 9
25 26 29 35 39 38 35 34 35 36 35 33 33 32 30 26 23 21 21 21 21 21 22 23 24 23 21 20 19 19 18 16 15 14 14 13 14 12 12 12 12 13 12 11 11 10 11 11 10 10 9 8 8 8 7 7 7 7 7 7 7 7 7
25 27 29 35 38 38 39 38 38 37 35 33 32 31 31 30 29 27 24 21 21 23 24 24 25 26 27 26 25 23 21 19 19 16 15 14 15 14 13 12 11 13 12 12 11 11 12 11 11 10 9 7 6 6 6 5 6 6 6 7 8 7 7
23 24 25 29 32 36 37 36 38 39 38 37 36 36 35 34 32 28 26 26 26 25 25 26 26 27 27 26 26 24 23 23 21 19 17 17 17 16 15 13 12 12 13 14 13 13 12 12 11 11 9 7 6 6 5 5 5 5 4 5 7 7 7
23 24 24 26 28 28 30 35 39 39 40 40 40 39 37 35 32 30 29 30 30 28 28 27 28 30 30 27 22 19 17 16 17 20 20 18 18 19 18 16 14 12 12 14 15 14 13 13 13 12 11 9 8 7 6 6 6 5 5 5 6 7 7
nan 27 25 23 26 27 28 29 31 33 36 39 41 39 37 36 36 35 34 32 32 34 33 31 29 29 28 25 24 24 22 18 18 21 21 20 19 17 17 17 17 17 16 16 15 14 14 14 14 14 13 11 9 7 7 7 6 6 6 7 6 7 7
30 nan 27 26 25 26 28 28 26 28 29 31 35 38 40 40 40 40 40 38 35 33 31 31 32 28 26 25 24 25 23 21 22 26 25 23 20 18 17 18 20 21 20 19 17 16 15 16 16 16 15 14 12 9 7 7 7 8 8 7 7 8 7
32 31 30 29 29 26 27 27 27 27 26 25 27 30 33 36 39 41 42 41 40 39 38 37 37 33 30 28 27 27 26 25 25 24 24 23 22 20 20 21 23 23 22 21 21 20 19 18 18 18 18 17 15 13 11 9 9 8 6 8 9 9 8
32 32 30 30 nan 28 27 28 29 28 28 26 26 28 30 30 32 33 36 38 40 40 39 40 40 38 35 34 33 31 29 28 26 25 24 25 25 24 24 23 24 25 24 23 23 23 22 21 20 20 20 19 17 15 14 13 13 7 7 7 7 9 10
32 32 30 30 30 nan 29 30 29 29 29 27 25 28 29 28 27 27 28 31 34 35 35 35 36 36 34 35 35 36 36 34 31 28 27 26 25 26 26 25 24 24 24 25 25 25 25 23 22 22 23 22 20 18 17 17 14 10 10 8 7 7 9
30 30 30 30 31 30 30 31 32 32 31 28 26 27 28 28 27 27 25 27 26 27 31 32 32 33 33 32 34 36 36 36 35 33 33 32 29 28 28 27 26 26 27 27 28 29 28 26 25 24 25 24 23 20 19 20 17 14 13 11 9 6 7
27 27 28 29 29 29 28 30 31 32 32 32 31 32 31 31 32 nan 28 27 26 28 28 29 29 29 29 29 29 30 30 32 33 32 32 32 34 34 34 32 31 28 25 26 27 29 29 27 26 26 27 27 27 26 26 25 22 19 17 14 11 8 10
nan nan nan 30 30 nan 29 30 32 32 33 33 32 32 33 32 32 31 30 28 30 30 30 30 30 28 25 25 24 24 24 26 28 29 30 30 32 34 35 34 33 32 29 27 27 28 29 28 28 28 28 29 29 29 29 29 29 24 18 15 12 10 13
nan nan 30 nan nan nan 32 32 32 32 31 30 33 32 32 31 30 32 32 31 33 34 35 35 36 31 25 25 24 24 21 21 23 23 25 26 27 29 30 29 30 31 32 32 33 33 33 31 30 29 30 30 32 32 32 32 33 28 23 18 16 14 19
nan nan nan nan nan nan nan nan nan nan nan nan nan nan nan nan nan nan nan nan 35 36 37 37 36 32 27 26 27 26 24 24 25 26 26 25 23 24 25 25 25 27 29 32 33 34 36 36 34 32 32 32 33 33 32 31 28 26 26 25 22 25 25
nan nan nan nan nan nan nan nan nan nan nan nan nan nan nan nan nan nan nan nan nan nan nan nan 34 31 29 27 26 26 27 28 30 31 32 30 26 22 21 21 23 25 27 29 30 32 33 34 32 31 33 35 35 33 32 31 30 28 28 29 28 29 27
nan nan nan nan nan nan nan nan nan nan nan nan nan nan nan nan nan nan nan nan nan nan nan nan nan nan nan 28 27 28 28 30 31 32 33 32 27 24 25 24 24 23 25 27 29 31 32 33 32 31 32 34 34 34 33 32 32 31 29 28 31 32 30
nan nan nan nan nan nan nan nan nan nan nan nan nan nan nan nan nan nan nan nan nan nan nan nan nan nan nan nan nan nan nan 31 32 31 32 32 30 29 29 28 27 27 27 28 28 29 32 33 32 32 34 35 35 37 38 37 37 38 35 33 33 32 32
nan nan nan nan nan nan nan nan nan nan nan nan nan nan nan nan nan nan nan nan nan nan nan nan nan nan nan nan nan nan nan nan nan nan nan nan nan 30 31 31 30 29 32 33 31 31 31 32 31 32 35 37 38 40 40 41 44 45 46 42 37 35 35
nan nan nan nan nan nan nan nan nan nan nan nan nan nan nan nan nan nan nan nan nan nan nan nan nan nan nan nan nan nan nan nan nan nan nan nan nan nan nan nan 33 32 33 35 34 32 31 29 30 31 34 36 38 37 37 41 47 47 47 43 41 40 36
nan nan nan nan nan nan nan nan nan nan nan nan nan nan nan nan nan nan nan nan nan nan nan nan nan nan nan nan nan nan nan nan nan nan nan nan nan nan nan nan nan nan nan nan 36 34 32 31 31 31 33 34 36 36 35 37 41 47 47 45 47 48 44
nan nan nan nan nan nan nan nan nan nan nan nan nan nan nan nan nan nan nan nan nan nan nan nan nan nan nan nan nan nan nan nan nan nan nan nan nan nan nan nan nan nan nan nan nan nan nan nan 33 33 34 35 34 35 34 35 37 40 43 46 52 51 50
nan nan nan nan nan nan nan nan nan nan nan nan nan nan nan nan nan nan nan nan nan nan nan nan nan nan nan nan nan nan nan nan nan nan nan nan nan nan nan nan nan nan nan nan nan nan nan nan nan nan 35 35 36 35 35 35 35 36 37 43 46 46 45
nan nan nan nan nan nan nan nan nan nan nan nan nan nan nan nan nan nan nan nan nan nan nan nan nan nan nan nan nan nan nan nan nan nan nan nan nan nan nan nan nan nan nan nan nan nan nan nan nan nan nan nan nan 38 37 36 36 36 36 39 41 40 41
nan nan nan nan nan nan nan nan nan nan nan nan nan nan nan nan nan nan nan nan nan nan nan nan nan nan nan nan nan nan nan nan nan nan nan nan nan nan nan nan nan nan nan nan nan nan nan nan nan nan nan nan nan nan nan nan nan 38 38 41 40 39 39
nan nan nan nan nan nan nan nan nan nan nan nan nan nan nan nan nan nan nan nan nan nan nan nan nan nan nan nan nan nan nan nan nan nan nan nan nan nan nan nan nan nan nan nan nan nan nan nan nan nan nan nan nan nan nan nan nan nan nan nan nan nan nan
nan nan nan nan nan nan nan nan nan nan nan nan nan nan nan nan nan nan nan nan nan nan nan nan nan nan nan nan nan nan nan nan nan nan nan nan nan nan nan nan nan nan nan nan nan nan nan nan nan nan nan nan nan nan nan nan nan nan nan nan nan nan nan
nan nan nan nan nan nan nan nan nan nan nan nan nan nan nan nan nan nan nan nan nan nan nan nan nan nan nan nan nan nan nan nan nan nan nan nan nan nan nan nan nan nan nan nan nan nan nan nan nan nan nan nan nan nan nan nan nan nan nan nan nan nan nan
nan nan nan nan nan nan nan nan nan nan nan nan nan nan nan nan nan nan nan nan nan nan nan nan nan nan nan nan nan nan nan nan nan nan nan nan nan nan nan nan nan nan nan nan nan nan nan nan nan nan nan nan nan nan nan nan nan nan nan nan nan nan nan
nan nan nan nan nan nan nan nan nan nan nan nan nan nan nan nan nan nan nan nan nan nan nan nan nan nan nan nan nan nan nan nan nan nan nan nan nan nan nan nan nan nan nan nan nan nan nan nan nan nan nan nan nan nan nan nan nan nan nan nan nan nan nan
Wind_Direction
214 207 202 206 209 nan nan nan nan nan nan nan nan nan 220 219 217 213 208 207 206 202 196 203 202 199 192 186 187 192 196 196 187 179 176 171 169 166 161 159 156 150 152 150 150 151 154 161 161 157 160 158 157 157 159 160 155 154 153 149 147 147 138
216 210 209 212 215 215 221 226 nan nan nan nan nan nan 223 227 224 218 212 212 214 219 216 210 210 205 200 192 191 192 196 198 194 188 188 183 178 173 169 169 163 158 158 155 162 162 166 159 164 162 158 158 153 157 161 159 155 155 153 150 148 147 148
219 216 215 216 217 212 216 219 218 nan nan nan nan nan 229 232 233 231 221 214 212 212 217 221 216 216 210 204 197 190 192 198 197 196 195 191 183 178 177 177 172 173 169 173 175 172 171 168 169 171 167 161 158 164 167 167 162 162 159 162 161 155 149
220 216 217 216 216 210 210 215 219 217 nan nan nan nan 232 234 232 230 228 225 222 216 222 218 217 217 216 212 204 197 193 193 196 197 196 197 192 189 190 185 184 186 188 182 183 184 183 184 181 181 179 178 173 175 184 180 182 188 192 208 197 182 167
221 215 214 216 215 211 208 215 220 222 223 nan nan nan 237 236 233 228 221 218 224 229 233 242 226 220 218 218 209 205 200 198 196 195 196 197 198 199 196 194 195 192 188 196 196 196 194 196 194 193 190 192 187 191 192 197 202 211 220 227 227 225 219
224 220 218 223 220 211 207 210 217 222 224 227 232 nan 236 237 228 224 220 219 212 208 209 217 226 230 233 227 221 213 209 202 201 200 200 199 202 203 201 199 203 202 204 204 207 201 201 200 201 201 200 200 198 200 203 207 211 222 225 231 230 233 240
218 219 225 227 223 218 216 209 208 215 217 216 219 227 234 238 237 226 217 213 214 222 219 215 212 215 218 227 226 225 219 211 207 203 204 204 202 202 203 203 206 208 210 217 212 209 203 200 198 198 199 200 200 204 208 208 211 217 224 228 225 226 230
232 224 224 228 222 222 226 216 207 211 212 211 218 226 235 234 233 229 222 217 223 222 219 221 217 217 215 214 218 221 219 214 213 211 209 210 208 203 204 207 208 209 215 221 216 217 206 200 199 198 197 197 196 199 205 210 214 218 222 222 220 219 230
221 219 217 221 223 226 229 222 212 209 210 210 212 218 224 231 235 233 224 218 219 224 218 215 213 214 219 218 215 213 211 211 209 210 210 211 214 211 212 214 212 215 219 220 221 221 216 208 204 205 206 203 203 203 204 211 218 223 229 224 224 223 222
221 219 217 218 219 219 221 221 216 215 215 215 214 216 221 222 222 222 221 219 221 227 228 225 220 217 218 218 216 213 212 210 207 206 203 204 207 211 217 223 225 227 229 229 229 232 226 222 218 217 218 215 215 216 212 216 218 224 229 232 235 232 228
217 221 219 222 221 218 218 215 215 217 220 221 220 220 221 223 221 218 220 223 225 225 228 230 228 230 227 223 221 218 217 210 204 203 201 199 201 199 206 217 227 236 241 243 242 242 244 236 233 232 232 231 233 235 233 229 232 230 228 228 235 239 237
224 223 218 221 225 224 221 219 220 221 222 221 219 219 221 224 221 215 213 215 216 225 228 228 227 229 231 234 235 231 226 220 219 211 205 200 201 197 196 199 210 227 239 246 248 249 254 261 257 255 253 251 255 264 267 261 256 252 242 239 238 237 235
234 230 225 221 223 223 221 221 224 225 224 223 224 223 224 229 228 224 220 221 218 217 218 220 228 229 225 222 230 241 255 255 244 236 228 221 213 207 203 199 198 210 228 242 247 249 251 257 265 265 268 269 268 272 278 280 276 267 255 243 241 242 238
nan 234 231 227 225 224 223 219 221 225 228 228 227 226 226 226 224 222 225 227 225 223 223 218 221 228 234 233 223 212 212 228 243 252 248 234 225 218 210 209 209 209 214 230 239 245 249 252 257 259 262 266 267 268 270 275 273 266 259 252 247 243 235
235 nan 226 225 221 222 223 223 222 223 225 228 230 227 225 223 222 222 224 224 228 231 232 232 228 224 227 231 229 231 230 225 221 225 231 238 234 222 214 211 212 216 220 223 228 237 244 247 249 250 250 249 249 246 247 259 265 261 261 255 247 241 231
238 234 229 224 224 224 229 225 223 225 230 224 222 223 222 222 224 226 225 226 228 227 223 225 228 225 225 224 224 226 229 228 228 231 233 233 233 228 220 216 213 211 215 223 227 226 230 238 245 249 249 246 239 231 226 224 233 248 288 276 255 248 240
239 238 235 231 nan 227 229 229 228 226 228 226 220 219 221 223 224 225 225 225 226 228 228 229 228 227 226 226 222 225 229 231 229 229 226 224 226 226 223 220 221 218 212 216 223 226 228 233 238 245 248 249 247 241 231 221 218 222 250 268 279 256 248
233 232 231 231 231 nan 233 234 235 232 233 235 228 224 227 231 230 224 220 219 222 221 223 228 231 229 228 228 225 227 228 226 228 230 228 228 229 229 227 227 227 225 223 220 221 222 224 229 236 241 245 247 247 246 243 237 232 227 229 242 256 262 254
237 235 234 232 230 229 230 234 236 234 236 241 243 237 234 237 238 235 229 226 223 223 224 227 228 228 227 226 225 225 226 226 226 228 229 229 233 235 239 240 236 231 227 226 226 226 225 224 227 234 241 245 245 244 244 243 247 248 242 237 238 250 255
236 239 239 237 235 232 231 233 234 235 235 237 240 240 239 239 242 nan 241 239 237 235 229 227 227 229 227 226 222 222 224 226 226 226 226 226 227 228 232 237 237 233 230 229 229 228 229 229 229 232 237 240 240 238 237 238 241 251 253 250 248 244 247
nan nan nan 242 240 nan 236 237 237 238 237 235 236 237 238 236 238 242 241 237 235 233 231 228 231 232 235 235 230 226 223 224 227 227 226 225 225 226 226 227 226 227 231 239 242 241 236 233 232 233 237 239 239 238 237 238 235 239 248 256 262 258 256
nan nan 247 nan nan nan 238 238 239 240 242 241 241 241 242 243 241 243 243 239 235 232 231 232 236 238 239 241 243 243 234 227 229 233 234 233 232 233 232 230 228 227 232 241 246 246 243 237 233 231 233 238 239 238 237 238 240 243 247 249 247 250 247
nan nan nan nan nan nan nan nan nan nan nan nan nan nan nan nan nan nan nan nan 241 240 238 239 240 238 235 240 247 254 254 247 242 238 238 238 239 240 241 239 237 235 239 240 242 242 241 236 229 226 228 231 236 239 241 241 242 244 243 245 244 244 242
nan nan nan nan nan nan nan nan nan nan nan nan nan nan nan nan nan nan nan nan nan nan nan nan 245 244 241 238 241 246 251 251 250 249 249 249 244 243 244 242 242 241 242 240 238 238 240 237 231 226 227 230 231 236 239 242 244 247 246 246 246 254 250
nan nan nan nan nan nan nan nan nan nan nan nan nan nan nan nan nan nan nan nan nan nan nan nan nan nan nan 240 241 244 245 247 248 247 248 249 249 250 248 242 240 242 242 242 240 236 235 235 231 228 228 231 234 233 236 239 240 242 242 242 247 253 251
nan nan nan nan nan nan nan nan nan nan nan nan nan nan nan nan nan nan nan nan nan nan nan nan nan nan nan nan nan nan nan 246 247 248 246 243 243 246 248 249 246 242 243 243 243 242 241 240 237 234 233 232 235 238 238 237 238 240 236 238 241 251 251
nan nan nan nan nan nan nan nan nan nan nan nan nan nan nan nan nan nan nan nan nan nan nan nan nan nan nan nan nan nan nan nan nan nan nan nan nan 245 249 251 250 247 248 250 249 247 243 242 240 238 237 236 236 239 240 238 237 238 235 234 238 246 255
nan nan nan nan nan nan nan nan nan nan nan nan nan nan nan nan nan nan nan nan nan nan nan nan nan nan nan nan nan nan nan nan nan nan nan nan nan nan nan nan 250 250 249 249 250 250 248 245 242 240 237 239 242 242 241 238 236 238 238 238 241 243 251
nan nan nan nan nan nan nan nan nan nan nan nan nan nan nan nan nan nan nan nan nan nan nan nan nan nan nan nan nan nan nan nan nan nan nan nan nan nan nan nan nan nan nan nan 247 247 247 246 244 241 238 238 239 242 241 240 241 238 239 238 239 244 246
nan nan nan nan nan nan nan nan nan nan nan nan nan nan nan nan nan nan nan nan nan nan nan nan nan nan nan nan nan nan nan nan nan nan nan nan nan nan nan nan nan nan nan nan nan nan nan nan 245 246 244 242 241 241 239 239 241 243 243 249 251 250 249
nan nan nan nan nan nan nan nan nan nan nan nan nan nan nan nan nan nan nan nan nan nan nan nan nan nan nan nan nan nan nan nan nan nan nan nan nan nan nan nan nan nan nan nan nan nan nan nan nan nan 249 249 247 246 244 242 241 245 247 252 250 247 244
nan nan nan nan nan nan nan nan nan nan nan nan nan nan nan nan nan nan nan nan nan nan nan nan nan nan nan nan nan nan nan nan nan nan nan nan nan nan nan nan nan nan nan nan nan nan nan nan nan nan nan nan nan 249 248 247 246 245 249 251 249 249 245
nan nan nan nan nan nan nan nan nan nan nan nan nan nan nan nan nan nan nan nan nan nan nan nan nan nan nan nan nan nan nan nan nan nan nan nan nan nan nan nan nan nan nan nan nan nan nan nan nan nan nan nan nan nan nan nan nan 247 248 249 249 250 252
nan nan nan nan nan nan nan nan nan nan nan nan nan nan nan nan nan nan nan nan nan nan nan nan nan nan nan nan nan nan nan nan nan nan nan nan nan nan nan nan nan nan nan nan nan nan nan nan nan nan nan nan nan nan nan nan nan nan nan nan nan nan nan
nan nan nan nan nan nan nan nan nan nan nan nan nan nan nan nan nan nan nan nan nan nan nan nan nan nan nan nan nan nan nan nan nan nan nan nan nan nan nan nan nan nan nan nan nan nan nan nan nan nan nan nan nan nan nan nan nan nan nan nan nan nan nan
nan nan nan nan nan nan nan nan nan nan nan nan nan nan nan nan nan nan nan nan nan nan nan nan nan nan nan nan nan nan nan nan nan nan nan nan nan nan nan nan nan nan nan nan nan nan nan nan nan nan nan nan nan nan nan nan nan nan nan nan nan nan nan
nan nan nan nan nan nan nan nan nan nan nan nan nan nan nan nan nan nan nan nan nan nan nan nan nan nan nan nan nan nan nan nan nan nan nan nan nan nan nan nan nan nan nan nan nan nan nan nan nan nan nan nan nan nan nan nan nan nan nan nan nan nan nan
nan nan nan nan nan nan nan nan nan nan nan nan nan nan nan nan nan nan nan nan nan nan nan nan nan nan nan nan nan nan nan nan nan nan nan nan nan nan nan nan nan nan nan nan nan nan nan nan nan nan nan nan nan nan nan nan nan nan nan nan nan nan nan